TimeIST,TemperatureF,Dew PointF,Humidity,Sea Level PressureIn,VisibilityMPH,Wind Direction,Wind SpeedMPH,Gust SpeedMPH,PrecipitationIn,Events,Conditions,WindDirDegrees,DateUTC
12:00 AM,42.8,41.0,93,29.74,6.2,WNW,9.2,-,N/A,,Mostly Cloudy,300,2012-10-12 23:00:00
12:30 AM,42.8,39.2,87,29.74,6.2,West,11.5,-,N/A,,Mostly Cloudy,270,2012-10-12 23:30:00
1:00 AM,43,38,76,29.75,25,West,11.2,,,,Partly Cloudy,280,2012-10-13 00:00:00
1:00 AM,42.8,37.4,81,29.71,6.2,West,11.5,-,N/A,,Scattered Clouds,280,2012-10-13 00:00:00
1:30 AM,42.8,37.4,81,29.71,6.2,West,9.2,-,N/A,,Partly Cloudy,270,2012-10-13 00:30:00
2:00 AM,42.8,37.4,81,29.71,6.2,West,11.5,-,N/A,,Partly Cloudy,270,2012-10-13 01:00:00
2:30 AM,42.8,37.4,81,29.74,6.2,West,8.1,-,N/A,,Partly Cloudy,280,2012-10-13 01:30:00
3:00 AM,42.8,39.2,87,29.74,6.2,West,9.2,-,N/A,,Partly Cloudy,260,2012-10-13 02:00:00
4:00 AM,42.8,37.4,81,29.71,6.2,West,8.1,-,N/A,,Partly Cloudy,280,2012-10-13 03:00:00
4:30 AM,41.0,37.4,87,29.71,6.2,WNW,9.2,-,N/A,,Partly Cloudy,300,2012-10-13 03:30:00
5:00 AM,41.0,39.2,93,29.71,6.2,WNW,11.5,-,N/A,Rain,Light Rain Showers,300,2012-10-13 04:00:00
5:30 AM,41.0,39.2,93,29.74,6.2,WNW,8.1,-,N/A,,Scattered Clouds,290,2012-10-13 04:30:00
6:00 AM,42.8,39.2,87,29.74,6.2,West,8.1,-,N/A,,Partly Cloudy,280,2012-10-13 05:00:00
6:30 AM,42.8,37.4,81,29.74,6.2,West,9.2,-,N/A,,Scattered Clouds,280,2012-10-13 05:30:00
7:00 AM,41,38,85,29.76,25,WNW,8.9,,,,Partly Cloudy,300,2012-10-13 06:00:00
7:00 AM,41.0,37.4,87,29.74,6.2,WNW,8.1,-,N/A,,Scattered Clouds,300,2012-10-13 06:00:00
7:30 AM,41.0,37.4,87,29.74,6.2,West,8.1,-,N/A,,Partly Cloudy,280,2012-10-13 06:30:00
8:00 AM,41.0,37.4,87,29.74,6.2,West,8.1,-,N/A,,Partly Cloudy,260,2012-10-13 07:00:00
8:30 AM,41.0,39.2,93,29.74,6.2,WNW,5.8,-,N/A,,Partly Cloudy,300,2012-10-13 07:30:00
9:00 AM,42.8,39.2,87,29.74,6.2,WNW,8.1,-,N/A,,Partly Cloudy,290,2012-10-13 08:00:00
9:30 AM,44.6,39.2,81,29.74,6.2,West,8.1,-,N/A,,Partly Cloudy,280,2012-10-13 08:30:00
10:00 AM,44.6,41.0,87,29.74,6.2,WNW,8.1,-,N/A,,Scattered Clouds,300,2012-10-13 09:00:00
10:30 AM,46.4,41.0,81,29.74,6.2,WNW,11.5,-,N/A,,Mostly Cloudy,290,2012-10-13 09:30:00
11:00 AM,46.4,41.0,81,29.77,6.2,WNW,9.2,-,N/A,,Mostly Cloudy,300,2012-10-13 10:00:00
11:30 AM,48.2,42.8,82,29.74,6.2,WNW,6.9,-,N/A,,Scattered Clouds,300,2012-10-13 10:30:00
12:00 PM,48.2,42.8,82,29.74,6.2,WNW,9.2,-,N/A,,Partly Cloudy,300,2012-10-13 11:00:00
12:30 PM,50.0,42.8,76,29.74,6.2,WNW,11.5,-,N/A,,Partly Cloudy,290,2012-10-13 11:30:00
1:00 PM,51,42,63,29.77,47,West,11.2,,,,Partly Cloudy,270,2012-10-13 12:00:00
1:00 PM,50.0,42.8,76,29.74,6.2,West,11.5,-,N/A,,Scattered Clouds,270,2012-10-13 12:00:00
1:30 PM,50.0,41.0,71,29.74,6.2,West,8.1,-,N/A,,Mostly Cloudy,270,2012-10-13 12:30:00
2:00 PM,51.8,41.0,67,29.74,6.2,WNW,10.4,-,N/A,,Mostly Cloudy,290,2012-10-13 13:00:00
2:30 PM,53.6,41.0,62,29.74,6.2,West,11.5,-,N/A,,Scattered Clouds,260,2012-10-13 13:30:00
3:00 PM,53.6,41.0,62,29.71,6.2,WNW,10.4,-,N/A,,Mostly Cloudy,290,2012-10-13 14:00:00
3:30 PM,53.6,41.0,62,29.71,6.2,West,12.7,-,N/A,,Mostly Cloudy,270,2012-10-13 14:30:00
4:00 PM,50.0,42.8,76,29.71,6.2,WNW,8.1,-,N/A,,Scattered Clouds,290,2012-10-13 15:00:00
4:30 PM,48.2,42.8,82,29.71,6.2,West,5.8,-,N/A,,Partly Cloudy,260,2012-10-13 15:30:00
5:00 PM,48.2,42.8,82,29.71,6.2,West,8.1,-,N/A,,Scattered Clouds,270,2012-10-13 16:00:00
5:30 PM,48.2,42.8,82,29.71,6.2,West,10.4,-,N/A,,Scattered Clouds,280,2012-10-13 16:30:00
6:00 PM,48.2,41.0,76,29.71,6.2,WNW,8.1,-,N/A,,Mostly Cloudy,290,2012-10-13 17:00:00
6:30 PM,48.2,42.8,82,29.71,6.2,West,5.8,-,N/A,,Scattered Clouds,280,2012-10-13 17:30:00
7:00 PM,47,42,76,29.72,31,NW,4.5,,,,Partly Cloudy,310,2012-10-13 18:00:00
7:00 PM,48.2,42.8,82,29.68,6.2,NW,4.6,-,N/A,,Mostly Cloudy,310,2012-10-13 18:00:00
7:30 PM,46.4,42.8,87,29.71,6.2,WNW,4.6,-,N/A,,Mostly Cloudy,290,2012-10-13 18:30:00
8:00 PM,46.4,42.8,87,29.68,6.2,West,4.6,-,N/A,,Mostly Cloudy,280,2012-10-13 19:00:00
8:30 PM,46.4,42.8,87,29.68,6.2,West,4.6,-,N/A,,Mostly Cloudy,270,2012-10-13 19:30:00
9:00 PM,44.6,41.0,87,29.68,6.2,West,6.9,-,N/A,,Mostly Cloudy,270,2012-10-13 20:00:00
9:30 PM,44.6,42.8,93,29.68,6.2,Calm,Calm,-,N/A,,Mostly Cloudy,0,2012-10-13 20:30:00
10:00 PM,44.6,42.8,93,29.68,6.2,Calm,Calm,-,N/A,,Scattered Clouds,0,2012-10-13 21:00:00
10:30 PM,44.6,41.0,87,29.68,6.2,SSW,3.5,-,N/A,,Scattered Clouds,210,2012-10-13 21:30:00
11:00 PM,42.8,41.0,93,29.68,6.2,WSW,3.5,-,N/A,,Scattered Clouds,240,2012-10-13 22:00:00
11:30 PM,42.8,41.0,93,29.65,6.2,WNW,3.5,-,N/A,,Scattered Clouds,290,2012-10-13 22:30:00